[[{"header":{"parameterUnit":"m.s-1","parameterCategory":1,"la1":30.2991,"la2":30.254,"lo1":-89.0895,"lo2":-89.0444,"dy":0.0017,"dx":0.0017,"nx":28,"ny":28,"refTime":"2025-07-24T21:00:00:Z","depth":0,"parameterNumber":2,"parameterNumberName":"U-component_of_WINDS"},"data":[0,0,0,0,0,0,0,0,0,0,0,0,0,0,0,0,0,0,0,0,0,0,0,0,0,0,0,0,0,0,0,0,0,0,0,0,0,0,0,0,0,0,0,0,0,0,0,0,0,0,0,0,0,0,0,0,0,0,-1.9029,-1.9031,0,-1.916,-1.9161,-1.9163,-1.9261,-1.9262,-1.9263,-1.9264,-1.9401,-1.9404,-1.9407,0,0,0,0,0,0,0,0,0,0,0,0,0,-1.887,-1.8872,-1.9029,-1.9031,-1.9032,-1.916,-1.9161,-1.9163,-1.9261,-1.9262,-1.9263,-1.9264,-1.94,-1.9404,-1.9407,0,0,0,0,0,0,0,0,0,0,0,0,0,-1.8963,-1.8873,-1.9029,-1.9096,-1.9104,-1.9159,-1.9162,-1.9164,-1.9261,-1.9262,-1.9263,-1.9265,-1.9399,-1.9403,-1.9408,-1.9408,0,0,-1.9421,-1.9423,0,0,0,0,0,0,0,0,-1.8958,-1.8969,-1.9085,-1.9092,-1.91,-1.9196,-1.9156,-1.9246,-1.926,-1.9201,-1.9264,-1.9265,-1.9332,-1.9342,-1.9364,-1.9414,-1.942,-1.9421,-1.9424,-1.9426,-1.9427,0,0,0,0,0,0,0,-1.8951,-1.8964,-1.9081,-1.9086,-1.9096,-1.9122,-1.9137,-1.9173,-1.9258,-1.9207,-1.9214,-1.9228,-1.9337,-1.9359,-1.9368,-1.9422,-1.9421,-1.9425,-1.9427,-1.9429,-1.9481,-1.9479,0,0,0,0,0,0,-1.8934,-1.8958,-1.9077,-1.9085,-1.9031,-1.9124,-1.914,-1.9164,-1.9258,-1.9273,-1.9227,-1.9232,-1.9351,-1.9363,-1.9373,-1.9379,-1.9425,-1.9429,-1.9432,-1.9482,-1.948,-1.9479,0,0,0,0,0,0,-1.893,-1.8943,-1.9072,-1.9024,-1.9042,-1.9125,-1.9151,-1.9166,-1.9188,-1.9273,-1.9289,-1.9234,-1.9353,-1.9367,-1.9398,-1.9385,-1.9431,-1.9435,-1.9483,-1.9481,-1.948,-1.939,0,0,0,0,0,0,-1.8925,-1.8941,-1.8941,-1.9023,-1.9044,-1.9093,-1.915,-1.9167,-1.9195,-1.9203,-1.9284,-1.9299,-1.9355,-1.9391,-1.9402,-1.9392,-1.9439,-1.9485,-1.9482,-1.948,-1.9395,-1.9385,-1.9378,0,0,0,0,0,-1.8919,-1.8911,-1.894,-1.8954,-1.9045,-1.9092,-1.9104,-1.9168,-1.9193,-1.9194,-1.9249,-1.9296,-1.9385,-1.9394,-1.9407,-1.9397,-1.9486,-1.9483,-1.948,-1.9398,-1.9387,-1.9378,0,0,0,0,0,0,-1.8826,-1.8923,-1.8956,-1.8974,-1.9024,-1.9108,-1.9111,-1.9154,-1.9198,-1.9204,-1.9283,-1.9301,-1.9324,-1.9365,-1.9372,-1.9403,-1.9442,-1.9441,-1.9375,-1.9365,-1.9356,-1.9345,-1.9442,0,0,0,0,0,-1.8807,-1.8836,-1.892,-1.8928,-1.8951,-1.9026,-1.9049,-1.9095,-1.915,-1.9171,-1.9228,-1.9281,-1.9322,-1.9346,-1.9388,-1.9402,-1.9421,-1.9403,-1.9394,-1.9387,-1.9385,-1.9396,-1.9388,-1.947,-1.947,-1.947,0,0,-1.877,-1.8826,-1.8839,-1.8911,-1.8954,-1.8983,-1.9043,-1.9072,-1.9094,-1.9176,-1.9208,-1.9252,-1.9317,-1.934,-1.9353,-1.9374,-1.9367,-1.9383,-1.9377,-1.9379,-1.9392,-1.9384,-1.9377,-1.9468,-1.9469,-1.9469,0,0,-1.8715,-1.8761,-1.8772,-1.8815,-1.888,-1.8931,-1.8933,-1.9012,-1.9044,-1.9077,-1.9139,-1.9169,-1.9237,-1.928,-1.9311,-1.9275,-1.932,-1.9287,-1.9242,-1.9251,-1.9245,-1.924,-1.9226,-1.922,-1.9286,-1.9285,-1.9285,0,-1.8659,-1.8704,-1.8773,-1.8797,-1.8827,-1.8903,-1.8915,-1.8954,-1.903,-1.905,-1.9073,-1.916,-1.9209,-1.9243,-1.9234,-1.9257,-1.9263,-1.9276,-1.924,-1.9236,-1.9232,-1.9219,-1.9214,-1.9281,-1.9281,-1.9282,-1.9282,0,-1.8633,-1.8663,-1.8665,-1.8734,-1.8766,-1.8784,-1.8857,-1.8881,-1.8924,-1.8973,-1.9007,-1.9069,-1.9124,-1.9137,-1.918,-1.9177,-1.9188,-1.9225,-1.9265,-1.9218,-1.9208,-1.9204,-1.9274,-1.9276,-1.9277,-1.9278,0,0,-1.852,-1.8629,-1.8628,-1.8661,-1.8739,-1.8765,-1.8789,-1.8842,-1.886,-1.8911,-1.8932,-1.8989,-1.9024,-1.9059,-1.9108,-1.9117,-1.9084,-1.9153,-1.9156,-1.9136,-1.9085,-1.9054,-1.9048,-1.9116,-1.9115,-1.9115,-1.9079,0,-1.8476,-1.8518,-1.8582,-1.8605,-1.8634,-1.8708,-1.8728,-1.878,-1.8827,-1.886,-1.8914,-1.8951,-1.8995,-1.9016,-1.9029,-1.9085,-1.9074,-1.9089,-1.9137,-1.9137,-1.9115,-1.9043,-1.9011,-1.8973,-1.9075,-1.9075,-1.9074,0,-1.8429,-1.8474,-1.8498,-1.8576,-1.8591,-1.8607,-1.8662,-1.8693,-1.8754,-1.8788,-1.8827,-1.8881,-1.8911,-1.8949,-1.8992,-1.9001,-1.9025,-1.9056,-1.9057,-1.9061,-1.91,-1.9043,-1.8963,-1.8956,-1.9069,-1.9069,-1.907,0,-1.8341,-1.8409,-1.8433,-1.8459,-1.855,-1.856,-1.8599,-1.8661,-1.869,-1.8739,-1.8758,-1.881,-1.8838,-1.8879,-1.8946,-1.8967,-1.8982,-1.9025,-1.9011,-1.9009,-1.9007,-1.9006,-1.8927,-1.9027,-1.9027,-1.9027,-1.9027,0,-1.8283,-1.8295,-1.8394,-1.8408,-1.8425,-1.85,-1.8515,-1.8561,-1.8616,-1.8642,-1.8711,-1.8734,-1.8823,-1.8857,-1.8911,-1.8938,-1.8951,-1.8979,-1.8993,-1.8971,-1.8967,-1.8986,-1.8989,-1.9026,-1.9026,-1.9027,-1.9027,0,-1.8187,-1.8254,-1.8284,-1.8368,-1.839,-1.8398,-1.8471,-1.8489,-1.8541,-1.8573,-1.8585,-1.8667,-1.8711,-1.8783,-1.8849,-1.8885,-1.8902,-1.8926,-1.888,-1.8888,-1.8868,-1.8868,-1.8797,-1.8791,-1.8896,-1.8895,-1.8894,0,-1.8143,-1.8154,-1.824,-1.8261,-1.8297,-1.8331,-1.836,-1.8436,-1.8464,-1.8535,-1.8544,-1.8594,-1.8636,-1.8704,-1.8771,-1.8822,-1.8846,-1.8818,-1.8854,-1.8833,-1.8844,-1.8841,-1.8842,-1.8808,-1.8807,-1.8806,-1.8805,0,-1.806,-1.8093,-1.8131,-1.8181,-1.8213,-1.8257,-1.8305,-1.8319,-1.8406,-1.8435,-1.8479,-1.8513,-1.858,-1.8628,-1.8689,-1.8731,-1.8782,-1.8793,-1.8792,-1.8769,-1.874,-1.8754,-1.8854,-1.8794,-1.8795,-1.8796,-1.8796,-1.8797,-1.7987,-1.8,-1.8062,-1.8103,-1.8146,-1.8189,-1.821,-1.8265,-1.8303,-1.8362,-1.8406,-1.8448,-1.8512,-1.8598,-1.8638,-1.8674,-1.8696,-1.8695,-1.8695,-1.8692,-1.8683,-1.8737,-1.8686,-1.8686,-1.8686,-1.8687,-1.8687,0,-1.7905,-1.7949,-1.7986,-1.8049,-1.8082,-1.8127,-1.8183,-1.8207,-1.8243,-1.8297,-1.8338,-1.8391,-1.8438,-1.851,-1.8563,-1.8578,-1.8603,-1.8589,-1.8587,-1.8596,-1.8661,-1.8655,-1.8568,-1.8568,-1.8568,-1.8568,-1.8568,-1.8568,-1.7865,-1.7889,-1.793,-1.7977,-1.8022,-1.8062,-1.809,-1.813,-1.8174,-1.8229,-1.8268,-1.8314,-1.8376,-1.8435,-1.8482,-1.8502,-1.8518,-1.8496,-1.8523,-1.8581,-1.8592,-1.8602,-1.8597,-1.85,-1.8499,-1.8456,-1.8455,-1.8455]},{"header":{"parameterUnit":"m.s-1","parameterCategory":1,"la1":30.2991,"la2":30.254,"lo1":-89.0895,"lo2":-89.0444,"dy":0.0017,"dx":0.0017,"nx":28,"ny":28,"refTime":"2025-07-24T21:00:00:Z","depth":0,"parameterNumber":3,"parameterNumberName":"V-component_of_WINDS"},"data":[0,0,0,0,0,0,0,0,0,0,0,0,0,0,0,0,0,0,0,0,0,0,0,0,0,0,0,0,0,0,0,0,0,0,0,0,0,0,0,0,0,0,0,0,0,0,0,0,0,0,0,0,0,0,0,0,0,0,3.0196,3.0195,0,3.0122,3.0121,3.012,3.0082,3.0082,3.0082,3.0082,3.0002,3.0,2.9998,0,0,0,0,0,0,0,0,0,0,0,0,0,3.0299,3.0297,3.0196,3.0195,3.0194,3.0122,3.0121,3.012,3.0082,3.0082,3.0082,3.0082,3.0003,3.0,2.9998,0,0,0,0,0,0,0,0,0,0,0,0,0,3.0242,3.0296,3.0196,3.0167,3.0163,3.0122,3.0121,3.012,3.0082,3.0082,3.0082,3.0082,3.0004,3.0,2.9997,2.9979,0,0,2.9988,2.9986,0,0,0,0,0,0,0,0,3.0245,3.0238,3.0172,3.0169,3.0165,3.0111,3.0128,3.0073,3.0082,3.0113,3.0082,3.0082,3.0038,3.0032,3.0018,2.9975,2.9972,2.9988,2.9986,2.9984,2.9983,0,0,0,0,0,0,0,3.0249,3.0241,3.0167,3.0171,3.0166,3.0155,3.0147,3.0117,3.0076,3.011,3.0107,3.0099,3.0036,3.0021,3.0016,2.9971,2.9988,2.9985,2.9983,2.9982,2.9907,2.9907,0,0,0,0,0,0,3.0259,3.0245,3.0169,3.0164,3.0206,3.0153,3.0144,3.0128,3.0077,3.0069,3.0099,3.0098,3.0027,3.002,3.0013,2.9988,2.9984,2.9981,2.998,2.9907,2.9907,2.9907,0,0,0,0,0,0,3.0261,3.0252,3.0172,3.0204,3.0193,3.0152,3.0134,3.0127,3.0112,3.0069,3.0061,3.0092,3.0026,3.0018,2.9988,2.9984,2.998,2.9977,2.9908,2.9907,2.9907,2.9937,0,0,0,0,0,0,3.0264,3.0253,3.0248,3.0204,3.0191,3.015,3.0134,3.0126,3.0108,3.0105,3.006,3.0052,3.0026,2.9993,2.9985,2.998,2.9975,2.9908,2.9907,2.9907,2.9936,2.9938,2.994,0,0,0,0,0,3.0268,3.0258,3.0248,3.0239,3.0183,3.015,3.0142,3.0113,3.0108,3.01,3.0072,3.0054,2.9986,2.999,2.9981,2.9975,2.9908,2.9908,2.9907,2.9936,2.9938,2.994,0,0,0,0,0,0,3.0301,3.0252,3.024,3.0216,3.0187,3.0143,3.0133,3.0116,3.0088,3.0086,3.005,3.004,3.0013,2.9991,2.9996,2.9954,2.9945,2.9943,2.997,2.9971,2.9973,2.9979,2.9972,0,0,0,0,0,3.0306,3.0285,3.0242,3.0225,3.0211,3.0175,3.0159,3.0139,3.0108,3.0095,3.0064,3.0033,3.0004,2.9986,2.9958,2.9933,2.9921,2.9924,2.9925,2.9927,2.9926,2.9909,2.9909,2.9907,2.9907,2.9907,0,0,3.0316,3.0286,3.0274,3.0231,3.0207,3.0183,3.0165,3.0141,3.0123,3.0091,3.0061,3.0038,3.0,2.9972,2.9958,2.9953,2.9924,2.9927,2.9928,2.9926,2.9909,2.9909,2.991,2.9906,2.9906,2.9906,0,0,3.0321,3.0297,3.028,3.0256,3.0219,3.0194,3.019,3.0148,3.0132,3.0102,3.0076,3.0053,3.0005,2.9979,2.996,2.9953,2.9935,2.9945,2.9953,2.9938,2.9938,2.9938,2.9935,2.9934,2.9943,2.9943,2.9944,0,3.0337,3.0303,3.0273,3.025,3.0231,3.0202,3.0183,3.016,3.0116,3.0102,3.0097,3.0035,3.0008,2.9973,2.9971,2.9957,2.9949,2.995,2.9941,2.994,2.994,2.9936,2.9935,2.9945,2.9945,2.9945,2.9944,0,3.0324,3.03,3.029,3.0249,3.0228,3.0208,3.0173,3.0156,3.0137,3.0112,3.0081,3.0047,3.001,3.0,2.9982,2.9962,2.996,2.9948,2.9938,2.9942,2.9938,2.9937,2.9947,2.9946,2.9946,2.9946,0,0,3.0349,3.0291,3.0288,3.0268,3.0225,3.0205,3.0182,3.0148,3.0133,3.0102,3.0082,3.0041,3.0029,3.0007,2.9985,2.9971,2.9967,2.996,2.9959,2.9962,2.9942,2.9951,2.9951,2.9954,2.9954,2.9954,2.9945,0,3.0348,3.0308,3.028,3.025,3.0226,3.0197,3.0176,3.0147,3.0122,3.0098,3.007,3.0042,3.0029,3.0015,3.0001,2.9971,2.9962,2.9971,2.9933,2.9932,2.9944,2.9949,2.9959,2.9952,2.9943,2.9943,2.9943,0,3.0343,3.0314,3.0282,3.024,3.0229,3.0212,3.0177,3.0154,3.0119,3.0102,3.0077,3.0054,3.0026,3.0019,2.9979,2.9986,2.9968,2.9951,2.995,2.9945,2.9938,2.9944,2.995,2.9949,2.994,2.9941,2.9941,0,3.0364,3.0318,3.0292,3.0276,3.0227,3.0215,3.0193,3.0158,3.0138,3.0107,3.0094,3.0059,3.004,3.0013,2.998,2.9978,2.9944,2.9934,2.9928,2.9929,2.9923,2.9923,2.9926,2.9911,2.9911,2.9911,2.9911,0,3.0366,3.0348,3.0301,3.0286,3.0263,3.0229,3.0207,3.0183,3.0151,3.0129,3.01,3.008,3.0038,3.0011,2.9985,2.9956,2.9947,2.9932,2.9925,2.9935,2.9937,2.9923,2.9922,2.9911,2.9911,2.9911,2.9911,0,3.0387,3.0356,3.0326,3.0281,3.0269,3.0254,3.0215,3.0198,3.0171,3.0143,3.0135,3.0093,3.006,3.0025,2.998,2.9962,2.9934,2.9924,2.9946,2.9943,2.9939,2.9939,2.9932,2.9929,2.9917,2.9917,2.9917,0,3.0391,3.0376,3.033,3.0314,3.0293,3.0267,3.0247,3.0212,3.0192,3.0149,3.0137,3.0102,3.0072,3.0021,2.9985,2.995,2.9939,2.9939,2.9934,2.9943,2.9939,2.994,2.9938,2.9941,2.9941,2.9942,2.9942,0,3.0401,3.0386,3.0359,3.0326,3.0303,3.0275,3.0246,3.0233,3.0192,3.0171,3.0137,3.0114,3.0068,3.0034,2.9994,2.9969,2.9948,2.9944,2.994,2.995,2.9963,2.9955,2.9951,2.9944,2.9944,2.9944,2.9944,2.9943,3.0413,3.0398,3.0363,3.0333,3.0308,3.0281,3.0262,3.0233,3.0205,3.0166,3.0146,3.0113,3.0075,3.002,2.9996,2.9968,2.9961,2.9957,2.9955,2.9955,2.9957,2.9968,2.996,2.996,2.996,2.996,2.996,0,3.0422,3.0397,3.037,3.0331,3.0307,3.029,3.0256,3.0236,3.0208,3.0175,3.0147,3.0107,3.0073,3.0034,2.9997,2.9982,2.9971,2.9973,2.9974,2.9968,2.9965,2.9972,2.9982,2.9982,2.9982,2.9982,2.9982,2.9982,3.0424,3.0397,3.0377,3.0336,3.0311,3.0279,3.0261,3.0235,3.0209,3.0167,3.0138,3.0114,3.0078,3.0038,3.0005,2.9994,2.9981,2.9986,2.9973,2.9971,2.9969,2.9967,2.9973,2.9984,2.9984,2.9978,2.9978,2.9978]}]]